Weather reports worldwide

Advertisment
F3, Netherlands (6239): temperature & dewpoint: 09.12.2019 00:00:00 - 15.12.2019 00:00:00 (CET)F3, Netherlands (6239): wind speed & gusts: 09.12.2019 00:00:00 - 15.12.2019 00:00:00 (CET)F3, Netherlands (6239): wind direction: 09.12.2019 00:00:00 - 15.12.2019 00:00:00 (CET)F3, Netherlands (6239): reduced air pressure: 09.12.2019 00:00:00 - 15.12.2019 00:00:00 (CET)F3, Netherlands (6239): visibility: 09.12.2019 00:00:00 - 15.12.2019 00:00:00 (CET)
Date & Time tt [°C] td [°C] ff [km/h] ff [kn] fx [km/h] fx [kn] dd ppp [hPa] vv [km]
15.12.2019 00:00:00 - - 63 34 68 37 - 987,0 10
14.12.2019 23:00:00 - - 70 38 72 39 - 986,9 10
14.12.2019 22:00:00 - - 70 38 76 41 - 986,0 10
14.12.2019 21:00:00 - - 72 39 76 41 - 984,9 10
14.12.2019 20:00:00 - - 80 43 79 43 - 984,2 10
14.12.2019 19:00:00 - - 72 39 72 39 - 983,1 10
14.12.2019 18:00:00 - - 72 39 79 43 - 982,3 10
14.12.2019 17:00:00 - - 76 41 83 45 - 981,4 10
14.12.2019 16:00:00 - - 74 40 83 45 - 980,0 10
14.12.2019 15:00:00 - - 68 37 76 41 - 979,6 10
14.12.2019 14:00:00 - - 72 39 72 39 - 978,5 10
14.12.2019 13:00:00 - - 72 39 76 41 - 977,5 10
14.12.2019 12:00:00 - - 81 44 79 43 - 977,0 10
14.12.2019 11:00:00 - - 67 36 76 41 - 976,1 7
14.12.2019 10:00:00 - - 68 37 68 37 - 975,4 10
14.12.2019 09:00:00 - - 68 37 65 35 - 974,8 10
14.12.2019 08:00:00 - - 63 34 61 33 - 974,1 10
14.12.2019 07:00:00 - - 57 31 61 33 - 973,7 10
14.12.2019 06:00:00 - - 39 21 54 29 - 973,3 7
14.12.2019 05:00:00 - - 48 26 47 25 - 973,5 10
14.12.2019 04:00:00 - - 31 17 32 18 - 973,8 10
14.12.2019 03:00:00 - - 35 19 32 18 - 974,1 10
14.12.2019 02:00:00 - - 26 14 32 18 - 974,5 10
14.12.2019 01:00:00 - - 29 16 40 21 - 975,0 10
14.12.2019 00:00:00 - - 29 16 36 19 - 975,3 10
13.12.2019 23:00:00 - - 29 16 32 18 - 975,7 10
13.12.2019 22:00:00 - - 29 16 29 16 - 976,0 10
13.12.2019 21:00:00 - - 29 16 32 18 - 976,5 10
13.12.2019 20:00:00 - - 18 10 29 16 - 976,8 50
13.12.2019 19:00:00 - - 31 17 32 18 - 976,9 9
13.12.2019 18:00:00 - - 35 19 54 29 - 976,9 10
13.12.2019 17:00:00 - - 37 20 36 19 - 976,8 10
13.12.2019 16:00:00 - - 34 18 32 18 - 976,6 10
13.12.2019 15:00:00 - - 31 17 32 18 - 976,2 10
13.12.2019 14:00:00 - - 31 17 36 19 - 975,9 7
13.12.2019 13:00:00 - - 35 19 40 21 - 975,7 10
13.12.2019 12:00:00 - - 41 22 43 23 - 975,3 10
13.12.2019 11:00:00 - - 44 24 47 25 - 974,9 10
13.12.2019 10:00:00 - - 52 28 54 29 - 974,2 10
13.12.2019 09:00:00 - - 59 32 61 33 - 973,3 10
13.12.2019 08:00:00 - - 68 37 72 39 - 972,4 9
13.12.2019 07:00:00 - - 72 39 76 41 - 971,6 10
13.12.2019 06:00:00 - - 76 41 76 41 - 971,3 2,9
13.12.2019 05:00:00 - - 80 43 76 41 - 971,7 6
13.12.2019 04:00:00 - - 78 42 76 41 - 972,5 6
13.12.2019 03:00:00 - - 78 42 79 43 - 973,3 10
13.12.2019 02:00:00 - - 61 33 76 41 - 974,4 25
13.12.2019 01:00:00 - - 76 41 76 41 - 976,1 8
13.12.2019 00:00:00 - - 74 40 76 41 - 977,8 10
12.12.2019 23:00:00 - - 72 39 76 41 - 979,2 10
12.12.2019 22:00:00 - - 70 38 72 39 - 980,7 4,4
12.12.2019 21:00:00 - - 72 39 68 37 - 982,4 9
12.12.2019 20:00:00 - - 67 36 65 35 - 984,1 10
12.12.2019 19:00:00 - - 63 34 61 33 - 985,6 10
12.12.2019 18:00:00 - - 63 34 61 33 - 986,9 10
12.12.2019 17:00:00 - - 50 27 61 33 - 988,5 10
12.12.2019 16:00:00 - - 48 26 65 35 - 989,5 10
12.12.2019 15:00:00 - - 44 24 47 25 - 990,6 10
12.12.2019 14:00:00 - - 48 26 47 25 - 991,6 10
12.12.2019 13:00:00 - - 48 26 47 25 - 992,9 10
12.12.2019 12:00:00 - - 46 25 47 25 - 993,9 10
12.12.2019 11:00:00 - - 42 23 43 23 - 994,4 10
12.12.2019 10:00:00 7,1 1,8 37 20 40 21 - 994,7 10
12.12.2019 09:00:00 7,1 -0,3 39 21 40 21 - 995,4 10
12.12.2019 08:00:00 7,2 0,9 37 20 40 21 - 995,0 10
12.12.2019 07:00:00 7,2 0,9 34 18 36 19 - 995,7 10
12.12.2019 06:00:00 6,9 1,9 41 22 43 23 - 995,2 10
12.12.2019 05:00:00 6,9 2,1 37 20 36 19 - 995,6 10
12.12.2019 04:00:00 6,8 2,7 35 19 36 19 - 995,9 10
12.12.2019 03:00:00 7,2 3,4 31 17 32 18 - 996,2 10
12.12.2019 02:00:00 6,7 3,3 31 17 40 21 - 996,6 10
12.12.2019 01:00:00 -47,0 -47,0 35 19 36 19 - 998,2 10
12.12.2019 00:00:00 -48,4 -28,0 35 19 36 19 - 998,1 10
11.12.2019 23:00:00 - -16,5 37 20 40 21 - 998,0 10
11.12.2019 22:00:00 - -23,6 42 23 43 23 - 998,6 10
11.12.2019 21:00:00 -72,1 -41,8 44 24 43 23 - 999,3 10
11.12.2019 20:00:00 - -25,6 42 23 68 37 - 999,0 10
11.12.2019 19:00:00 -66,6 -38,8 42 23 58 31 - 999,8 10
11.12.2019 18:00:00 - -25,9 44 24 43 23 - 1000,1 10
11.12.2019 17:00:00 - -43,4 42 23 47 25 - 999,9 10
11.12.2019 16:00:00 - -48,1 48 26 50 27 - 1000,1 10
11.12.2019 15:00:00 - -26,5 50 27 47 25 - 1000,3 10
11.12.2019 14:00:00 - -29,7 48 26 47 25 - 1000,6 10
11.12.2019 13:00:00 -83,3 -31,5 44 24 43 23 - 1002,0 10
11.12.2019 12:00:00 - -48,0 41 22 43 23 - 1001,9 10
11.12.2019 11:00:00 - -42,1 37 20 40 21 - 1002,5 10
11.12.2019 10:00:00 -58,9 -34,4 41 22 43 23 - 1002,8 10
11.12.2019 09:00:00 - -26,3 48 26 50 27 - 1002,1 10
11.12.2019 08:00:00 - -28,7 50 27 50 27 - 1002,0 10
11.12.2019 07:00:00 - -29,6 52 28 54 29 - 1001,8 10
11.12.2019 06:00:00 -62,4 -36,2 55 30 58 31 - 1001,9 10
11.12.2019 05:00:00 9,0 3,0 57 31 61 33 - 1001,1 10
11.12.2019 04:00:00 8,7 3,4 61 33 61 33 - 1000,5 10
11.12.2019 03:00:00 8,9 4,0 61 33 61 33 - 999,8 10
11.12.2019 02:00:00 8,6 6,2 50 27 61 33 - 999,1 10
11.12.2019 01:00:00 9,2 5,7 61 33 68 37 - 998,4 10
11.12.2019 00:00:00 10,0 8,8 81 44 90 49 - 997,3 4,2
10.12.2019 23:00:00 9,6 8,8 89 48 94 51 - 996,5 3,6
10.12.2019 22:00:00 9,5 7,7 93 50 97 53 - 997,3 7
10.12.2019 21:00:00 9,7 7,1 93 50 104 56 - 998,3 9
10.12.2019 20:00:00 9,2 7,1 96 52 101 54 - 999,1 8
10.12.2019 19:00:00 9,1 6,7 96 52 101 54 - 1000,7 10
10.12.2019 18:00:00 8,5 6,8 93 50 94 51 - 1002,0 6
10.12.2019 17:00:00 8,8 5,9 91 49 90 49 - 1003,5 10
10.12.2019 16:00:00 9,2 5,3 85 46 94 51 - 1005,3 10
10.12.2019 15:00:00 9,1 5,1 83 45 83 45 - 1007,4 10
10.12.2019 14:00:00 9,1 3,9 78 42 79 43 - 1009,4 10
10.12.2019 13:00:00 8,6 2,6 76 41 76 41 - 1011,8 10
10.12.2019 12:00:00 8,3 2,4 70 38 72 39 - 1013,3 10
10.12.2019 11:00:00 7,9 2,2 63 34 - - - 1015,3 10
10.12.2019 10:00:00 7,6 0,9 57 31 58 31 - 1016,3 10
10.12.2019 09:00:00 7,8 1,9 44 24 50 27 - 1016,9 10
10.12.2019 08:00:00 7,7 -0,2 37 20 40 21 - 1017,7 10
10.12.2019 07:00:00 7,7 -0,5 31 17 32 18 - 1018,2 10
10.12.2019 06:00:00 7,4 -0,2 18 10 22 12 - 1018,4 10
10.12.2019 05:00:00 7,3 -1,6 22 12 32 18 - 1018,9 10
10.12.2019 04:00:00 7,3 -2,9 28 15 36 19 - 1019,0 10
10.12.2019 03:00:00 7,1 -1,4 35 19 40 21 - 1018,9 10
10.12.2019 02:00:00 7,1 -3,5 41 22 43 23 - 1018,1 10
10.12.2019 01:00:00 7,1 -1,9 44 24 50 27 - 1017,5 10
10.12.2019 00:00:00 6,8 -1,2 54 29 61 33 - 1016,7 10
09.12.2019 23:00:00 7,3 0,0 54 29 58 31 - 1016,0 10
09.12.2019 22:00:00 5,4 0,7 61 33 72 39 - 1015,1 10
09.12.2019 21:00:00 7,1 -0,2 65 35 72 39 - 1013,7 10
09.12.2019 20:00:00 7,3 -3,6 68 37 76 41 - 1012,1 10
09.12.2019 19:00:00 7,1 -2,0 72 39 86 47 - 1010,7 10
09.12.2019 18:00:00 6,8 0,9 72 39 86 47 - 1008,9 10
09.12.2019 17:00:00 7,5 -1,4 68 37 83 45 - 1006,9 10
09.12.2019 16:00:00 7,6 -0,1 68 37 79 43 - 1005,2 10
09.12.2019 15:00:00 7,6 0,3 81 44 86 47 - 1002,9 10
09.12.2019 14:00:00 8,0 0,8 65 35 76 41 - 1001,0 10
09.12.2019 13:00:00 - - 61 33 76 41 - 999,4 10
09.12.2019 12:00:00 - - 57 31 65 35 - 996,8 10
09.12.2019 11:00:00 - - 39 21 61 33 - 994,8 10
09.12.2019 10:00:00 - - 39 21 61 33 - 992,1 10
09.12.2019 09:00:00 - - 37 20 50 27 - 990,0 10
09.12.2019 08:00:00 - - 46 25 50 27 - 988,2 10
09.12.2019 07:00:00 - - 50 27 61 33 - 987,1 10
09.12.2019 06:00:00 - - 54 29 61 33 - 986,0 10
09.12.2019 05:00:00 - - 61 33 65 35 - 985,2 10
09.12.2019 04:00:00 - - 67 36 68 37 - 984,9 10
09.12.2019 03:00:00 - - 70 38 72 39 - 984,6 10
09.12.2019 02:00:00 - - 68 37 72 39 - 984,8 10
09.12.2019 01:00:00 - - 65 35 76 41 - 985,3 10
09.12.2019 00:00:00 - - 67 36 72 39 - 984,9 10

tt = temperature
td = dewpoint
ff = wind speed
fx = gusts
dd = wind direction
ppp = reduced air pressure
vv = visibility

Next stations